Conway, SC

10:20 PM EDT on August 28, 2016 (GMT -0400)
Conway-Horry County

Weather History for KHYW - December, 2013

Change the Weather History Date:

Sunday, December 15, 2013

  Actual Average Record
Temperature  
Mean Temperature 52 °F -  
Max Temperature 64 °F 61 °F 73 °F (2011)
Min Temperature 41 °F 37 °F 17 °F (2010)
Degree Days  
Heating Degree Days 12    
Growing Degree Days 2 (Base 50)    
Moisture  
Dew Point 51 °F    
Average Humidity 93    
Maximum Humidity 100    
Minimum Humidity 72    
Precipitation  
Precipitation 0.11 in - - ()
Sea Level Pressure  
Sea Level Pressure 29.91 in    
Wind  
Wind Speed 4 mph (WSW)    
Max Wind Speed 9 mph    
Max Gust Speed 17 mph    
Visibility 7 miles    
Events Rain    
Averages and records for this station are not official NWS values.
T = Trace of Precipitation, MM = Missing Value Source: NWS Daily Summary

Daily Weather History Graph

Daily Weather History Graph

Search for Another Location

Airport or City:

Trip Planner

Search our weather history database for the weather conditions in past years. The results will help you decide how hot, cold, wet, or windy it might be!

Date:

Astronomy

Dec. 15, 2013 Rise Set
Actual Time 7:14 AM EST 5:09 PM EST
Civil Twilight 6:46 AM EST 5:37 PM EST
Nautical Twilight 6:15 AM EST 6:08 PM EST
Astronomical Twilight 5:44 AM EST 6:38 PM EST
Moon 4:09 PM EST (12/15) 5:32 AM EST (12/15)
Length of Visible Light 10h 50m
Length of Day
9h 55m
Waxing Gibbous, 97% of the Moon is Illuminated
Dec 15
Waxing Gibbous
Dec 17
Full
Dec 25
Last Quarter
Jan 1
New
Jan 7
First Quarter

Hourly Weather History & Observations

Time (EST) Temp. Dew Point Humidity Pressure Visibility Wind Dir Wind Speed Gust Speed Precip Events Conditions
12:15 AM 64.4 °F 64.4 °F 100% 29.78 in 10.0 mi WSW 3.5 mph - N/A Rain Rain
12:35 AM 64.4 °F 64.4 °F 100% 29.77 in 4.0 mi Calm Calm - 0.05 in Rain Rain
12:55 AM 62.6 °F 62.6 °F 100% 29.76 in 5.0 mi West 4.6 mph - 0.09 in Rain Rain
1:15 AM 62.6 °F 62.6 °F 100% 29.76 in 7.0 mi West 4.6 mph - N/A   Overcast
1:35 AM 62.6 °F 62.6 °F 100% 29.77 in 7.0 mi West 6.9 mph - 0.01 in   Overcast
1:55 AM 60.8 °F 60.8 °F 100% 29.77 in 7.0 mi West 3.5 mph - 0.01 in   Overcast
2:15 AM 60.8 °F 60.8 °F 100% 29.77 in 7.0 mi Calm Calm - N/A   Overcast
2:35 AM 60.8 °F 60.8 °F 100% 29.77 in 7.0 mi WSW 3.5 mph - N/A   Overcast
2:55 AM 60.8 °F 60.8 °F 100% 29.80 in 7.0 mi West 9.2 mph 17.3 mph N/A   Overcast
3:15 AM 59.0 °F 59.0 °F 100% 29.81 in 7.0 mi West 5.8 mph - N/A   Overcast
3:35 AM 59.0 °F 59.0 °F 100% 29.81 in 7.0 mi West 8.1 mph 16.1 mph N/A   Overcast
3:55 AM 57.2 °F 57.2 °F 100% 29.80 in 7.0 mi West 3.5 mph - N/A   Mostly Cloudy
4:15 AM 57.2 °F 57.2 °F 100% 29.79 in 7.0 mi West 3.5 mph - N/A   Overcast
4:35 AM 55.4 °F 55.4 °F 100% 29.79 in 7.0 mi West 5.8 mph - N/A   Overcast
4:55 AM 55.4 °F 55.4 °F 100% 29.79 in 7.0 mi Calm Calm - N/A Rain Light Rain
5:15 AM 55.4 °F 55.4 °F 100% 29.78 in 10.0 mi WSW 5.8 mph - N/A Rain Light Rain
5:35 AM 55.4 °F 55.4 °F 100% 29.77 in 10.0 mi SSW 6.9 mph - N/A Rain Rain
5:55 AM 55.4 °F 55.4 °F 100% 29.78 in 10.0 mi SW 5.8 mph - N/A Rain Light Rain
6:15 AM 55.4 °F 55.4 °F 100% 29.78 in 10.0 mi SW 5.8 mph - 0.01 in Rain Light Rain
6:35 AM 55.4 °F 55.4 °F 100% 29.80 in 10.0 mi SW 6.9 mph - 0.01 in Rain Light Rain
6:55 AM 55.4 °F 55.4 °F 100% 29.82 in 10.0 mi SW 6.9 mph - 0.01 in Rain Light Rain
7:15 AM 55.4 °F 55.4 °F 100% 29.84 in 10.0 mi SW 6.9 mph - N/A Rain Light Rain
7:35 AM 55.4 °F 55.4 °F 100% 29.85 in 10.0 mi SW 6.9 mph - N/A Rain Light Rain
7:55 AM 55.4 °F 55.4 °F 100% 29.87 in 10.0 mi SW 4.6 mph - N/A   Scattered Clouds
8:15 AM 55.4 °F 55.4 °F 100% 29.86 in 7.0 mi WSW 5.8 mph - N/A   Scattered Clouds
8:35 AM 55.4 °F 55.4 °F 100% 29.85 in 7.0 mi WSW 5.8 mph - N/A   Mostly Cloudy
8:55 AM 55.4 °F 55.4 °F 100% 29.87 in 7.0 mi WSW 4.6 mph - N/A   Scattered Clouds
9:15 AM 55.4 °F 55.4 °F 100% 29.89 in 5.0 mi West 4.6 mph - N/A   Clear
9:35 AM 55.4 °F 55.4 °F 100% 29.89 in 7.0 mi WSW 4.6 mph - N/A   Clear
9:55 AM 55.4 °F 55.4 °F 100% 29.90 in 7.0 mi WSW 5.8 mph - N/A   Scattered Clouds
10:15 AM 55.4 °F 53.6 °F 94% 29.90 in 5.0 mi West 8.1 mph - N/A   Mostly Cloudy
10:35 AM 55.4 °F 51.8 °F 88% 29.91 in 7.0 mi West 6.9 mph - N/A   Overcast
10:55 AM 57.2 °F 50.0 °F 77% 29.91 in 5.0 mi West 6.9 mph 16.1 mph N/A   Haze
11:15 AM 55.4 °F 50.0 °F 82% 29.91 in 5.0 mi West 5.8 mph - N/A   Haze
11:35 AM 55.4 °F 50.0 °F 82% 29.90 in 7.0 mi NW 3.5 mph - N/A   Overcast
11:55 AM 55.4 °F 46.4 °F 72% 29.90 in 5.0 mi West 8.1 mph - N/A   Haze
12:15 PM 55.4 °F 46.4 °F 72% 29.90 in 7.0 mi WSW 9.2 mph - N/A   Overcast
12:35 PM 55.4 °F 46.4 °F 72% 29.90 in 7.0 mi WSW 6.9 mph 17.3 mph N/A   Scattered Clouds
12:55 PM 55.4 °F 46.4 °F 72% 29.89 in 7.0 mi West 8.1 mph - N/A   Mostly Cloudy
1:15 PM 55.4 °F 46.4 °F 72% 29.89 in 7.0 mi West 3.5 mph - N/A   Overcast
1:35 PM 55.4 °F 46.4 °F 72% 29.89 in 5.0 mi West 5.8 mph - N/A   Haze
1:55 PM 55.4 °F 46.4 °F 72% 29.89 in 5.0 mi WNW 4.6 mph - N/A   Haze
2:15 PM 55.4 °F 46.4 °F 72% 29.89 in 7.0 mi Calm Calm - N/A   Overcast
2:35 PM 55.4 °F 46.4 °F 72% 29.89 in 5.0 mi West 3.5 mph - N/A   Haze
2:55 PM 53.6 °F 46.4 °F 77% 29.89 in 7.0 mi Calm Calm - N/A   Mostly Cloudy
3:15 PM 53.6 °F 46.4 °F 77% 29.90 in 7.0 mi NW 3.5 mph - N/A   Overcast
3:35 PM 53.6 °F 46.4 °F 77% 29.91 in 5.0 mi WNW 3.5 mph - N/A   Haze
3:55 PM 53.6 °F 46.4 °F 77% 29.92 in 7.0 mi Calm Calm - N/A   Scattered Clouds
4:15 PM 53.6 °F 46.4 °F 77% 29.94 in 7.0 mi Calm Calm - N/A   Scattered Clouds
4:35 PM 53.6 °F 46.4 °F 77% 29.94 in 7.0 mi Calm Calm - N/A   Scattered Clouds
4:55 PM 53.6 °F 46.4 °F 77% 29.95 in 5.0 mi Calm Calm - N/A   Haze
5:15 PM 51.8 °F 46.4 °F 82% 29.95 in 5.0 mi Calm Calm - N/A   Scattered Clouds
5:35 PM 50.0 °F 46.4 °F 87% 29.96 in 7.0 mi Calm Calm - N/A   Clear
5:55 PM 50.0 °F 48.2 °F 94% 29.97 in 7.0 mi Calm Calm - N/A   Clear
6:15 PM 48.2 °F 48.2 °F 100% 29.98 in 7.0 mi Calm Calm - N/A   Clear
6:35 PM 46.4 °F 46.4 °F 100% 29.99 in 7.0 mi Calm Calm - N/A   Clear
6:55 PM 46.4 °F 46.4 °F 100% 30.01 in 7.0 mi Calm Calm - N/A   Clear
7:15 PM 44.6 °F 44.6 °F 100% 30.01 in 7.0 mi Calm Calm - N/A   Clear
7:35 PM 44.6 °F 44.6 °F 100% 30.02 in 7.0 mi Calm Calm - N/A   Clear
7:55 PM 44.6 °F 44.6 °F 100% 30.04 in 5.0 mi Calm Calm - N/A   Clear
8:15 PM 44.6 °F 44.6 °F 100% 30.04 in 5.0 mi Calm Calm - N/A   Clear
8:35 PM 42.8 °F 42.8 °F 100% 30.06 in 7.0 mi Calm Calm - N/A   Clear
8:55 PM 42.8 °F 42.8 °F 100% 30.07 in 7.0 mi Calm Calm - N/A   Scattered Clouds
9:15 PM 44.6 °F 44.6 °F 100% 30.08 in 7.0 mi Calm Calm - N/A   Scattered Clouds
9:35 PM 42.8 °F 42.8 °F 100% 30.07 in 7.0 mi Calm Calm - N/A   Clear
9:55 PM 42.8 °F 42.8 °F 100% 30.08 in 5.0 mi Calm Calm - N/A   Clear
10:15 PM 41.0 °F 41.0 °F 100% 30.09 in 5.0 mi Calm Calm - N/A   Clear
10:35 PM 41.0 °F 41.0 °F 100% 30.10 in 4.0 mi Calm Calm - N/A   Clear
10:55 PM 41.0 °F 41.0 °F 100% 30.11 in 7.0 mi Calm Calm - N/A   Clear
11:15 PM 41.0 °F 41.0 °F 100% 30.12 in 7.0 mi Calm Calm - N/A   Clear
11:35 PM 41.0 °F 41.0 °F 100% 30.12 in 5.0 mi Calm Calm - N/A   Clear
11:55 PM 41.0 °F 41.0 °F 100% 30.12 in 7.0 mi Calm Calm - N/A   Clear